Flag for Germany Weather past 2 weeks in Dannenberg, Lower Saxony, Germany

Now
37 °F

Scattered clouds.


Feels Like: 30 °F
Forecast: 33 / 45 °F
Wind: 10 mph from Southwest

Location: Mecklenburg-Vorpommern - Parchim

Current Time: Mar 4, 2015 at 9:52:32 PM

Latest Report: Mar 4, 2015 at 5:50 PM


Visibility: N/A

Pressure: 30.07 "Hg

Humidity: 93%

Dew point: 36 °F

Location of DannenbergLocation

Historic Weather in Dannenberg — Graph

°F

Dannenberg temperature yesterday

Maximum temperature yesterday: 43 °F (at 1:50 PM)
Minimum temperature yesterday: 34 °F (at 5:20 AM)
Average temperature yesterday: 39 °F

Past Weeks' High & Low Weather Summary

 TemperatureHumidityPressure
High48 °F (Feb 26, 1:50 PM)100% (Feb 18, 5:20 AM)30.69 "Hg (Feb 18, 5:20 AM)
Low23 °F (Feb 26, 6:20 AM)40% (Feb 26, 3:50 PM)29.27 "Hg (Feb 21, 12:50 PM)
Average39 °F79%29.85 "Hg
* Reported Feb 17 5:20 PM — Mar 4 5:50 PM, Dannenberg, Weather by CustomWeather, © 2015

Note: Actual official high and low records may vary slightly from our data, if they occured in-between our weather recording intervals... More about our weather records

Advertising

Dannenberg weather history for previous 24 hours

 ConditionsComfort  
Time TempWeatherWind HumidityBarometerVisibility
5:50 PM
Wed, Mar 4
37 °FScattered clouds.10 mph93%30.07 "HgN/A
5:20 PM39 °FScattered clouds.14 mph87%30.07 "HgN/A
4:50 PM37 °FScattered clouds.12 mph93%30.09 "HgN/A
4:20 PM37 °FPartly sunny.15 mph93%30.09 "HgN/A
3:50 PM39 °FSprinkles. Broken clouds.16 mph81%30.07 "Hg4 mi
3:20 PM43 °FPartly sunny.16 mph71%30.07 "HgN/A
2:50 PM43 °FScattered clouds.15 mph76%30.07 "HgN/A
2:20 PM41 °FPartly sunny.15 mph81%30.07 "HgN/A
1:50 PM41 °FPartly sunny.18 mph81%30.07 "HgN/A
1:20 PM41 °FPartly sunny.18 mph81%30.07 "HgN/A
12:50 PM41 °FOvercast.20 mph81%30.07 "HgN/A
12:20 PM39 °FOvercast.17 mph87%30.07 "HgN/A
11:50 AM37 °FLow clouds.15 mph87%30.04 "HgN/A
11:20 AM37 °FOvercast.16 mph87%30.04 "HgN/A
10:50 AM37 °FMostly cloudy.14 mph87%30.04 "HgN/A
10:20 AM37 °FMore clouds than sun.17 mph81%30.04 "HgN/A
9:50 AM37 °FSunny.18 mph81%30.04 "Hg10 mi
9:20 AM37 °FSunny.15 mph81%30.04 "Hg10 mi
8:50 AM36 °FSunny.12 mph87%30.04 "Hg10 mi
8:20 AM34 °FSunny.13 mph93%30.01 "Hg10 mi
7:50 AM34 °FPassing clouds.9 mph93%30.01 "HgN/A
7:20 AM32 °FScattered clouds.8 mph93%30.01 "HgN/A
6:50 AM34 °FPassing clouds.12 mph93%29.98 "HgN/A
6:20 AM34 °FPartly cloudy.12 mph87%29.98 "HgN/A
5:50 AM34 °FPassing clouds.13 mph87%29.98 "HgN/A
5:20 AM34 °FPartly cloudy.13 mph93%29.95 "Hg6 mi
Weather by CustomWeather, © 2015

See weather overviewHow to use our weather pages